Location: Unspecified
(0.0000°N, 0.0000°E)
Time: 02:49:43
(UTC+00:00)

JUGNU - Pass Details

Date: 09 December 2017
Orbit: 837 x 864 km, 20.0° (Epoch: 19 January)

Event Time Altitude Azimuth Distance (km) Brightness Sun altitude
Rises 18:51:05 0° 234° (SW) 3,398 ? -13.5°
Reaches altitude 10° 18:56:49 10° 190° (S) 2,454 ? -14.8°
Maximum altitude 18:57:22 10° 185° (S) 2,444 ? -14.9°
Drops below altitude 10° 18:57:55 10° 180° (S) 2,452 ? -15.0°
Sets 19:03:38 0° 136° (SE) 3,379 ? -16.3°
